Theta_e
306 305 304 304 303 303 303 302 302 304 307 303 303 304 307 308 308 315 318 311 312 318 323 331 327 329 346 353 354 354 363 366 363 353 352 350 356 355 353 355 354 352 353 350 341
303 302 301 301 302 302 303 304 306 306 303 304 305 305 307 311 314 317 314 314 314 317 318 320 329 327 338 353 354 353 360 361 353 352 350 347 350 357 358 359 358 355 351 347 345
301 300 300 301 301 301 301 301 307 305 302 304 307 305 306 309 321 320 323 316 315 316 317 318 324 328 341 348 350 351 360 353 352 350 350 348 348 347 358 362 358 357 353 349 350
301 301 301 300 300 300 301 301 303 303 303 308 310 311 312 316 322 321 319 321 316 318 319 319 322 329 339 350 349 352 353 349 348 347 350 350 347 348 357 359 354 353 351 349 350
302 301 301 300 300 300 301 302 303 305 306 316 317 313 314 318 318 321 321 320 320 318 319 318 322 329 335 345 347 347 349 348 347 346 350 347 346 350 357 356 353 351 351 350 349
302 302 301 301 300 301 303 305 307 308 308 318 320 316 316 319 321 323 324 322 324 320 319 318 324 329 333 338 345 345 347 348 346 347 348 344 347 346 356 353 354 353 351 350 349
302 302 301 301 301 302 307 308 308 309 309 317 321 317 317 314 321 324 324 323 322 319 317 319 323 325 333 338 341 344 346 350 350 350 352 348 349 348 354 353 354 354 352 350 349
302 302 301 301 301 303 307 309 310 311 310 319 320 320 320 318 322 322 322 327 321 320 318 320 324 322 325 334 339 342 344 345 347 347 348 350 353 350 350 354 355 354 353 352 349
302 302 302 301 301 303 308 310 311 312 314 318 321 321 323 324 323 324 323 325 324 323 321 320 321 322 323 331 336 339 345 344 347 344 347 349 350 350 346 352 355 354 353 351 350
302 302 302 302 301 304 307 310 310 319 322 321 322 322 322 325 327 326 324 322 321 323 323 322 322 324 322 328 336 340 343 342 346 346 346 342 340 349 348 348 352 353 351 350 352
302 302 302 302 302 307 308 310 308 314 314 308 310 318 312 324 321 326 325 324 319 325 326 326 326 327 324 327 331 340 343 343 341 344 343 342 339 351 347 352 356 356 351 350 349
302 302 302 302 302 308 311 309 307 308 307 309 310 311 312 313 317 321 326 324 321 325 326 329 330 327 328 328 329 337 342 343 340 339 341 339 339 340 348 355 354 355 352 350 349
302 302 303 303 304 310 310 308 308 308 307 309 310 311 311 312 314 317 321 324 321 324 326 330 332 331 331 329 330 334 338 340 340 336 336 340 341 340 348 351 347 352 353 349 349
303 304 304 304 307 308 311 309 308 308 308 313 315 315 315 313 314 318 321 323 323 323 326 329 331 333 333 331 331 335 336 339 340 338 342 341 344 339 341 351 353 356 356 350 349
304 304 305 305 307 310 310 309 308 309 313 318 314 315 312 313 314 318 319 321 322 323 327 330 333 333 333 333 332 335 334 336 338 339 338 342 342 341 337 340 353 356 353 349 350
303 305 306 307 308 310 309 308 308 310 314 313 312 311 310 311 316 320 318 322 321 322 328 329 333 332 332 332 332 333 333 331 336 338 340 335 342 342 340 339 354 354 352 351 352
303 307 308 307 310 309 309 308 310 311 312 311 308 308 308 310 313 314 317 322 325 323 329 329 330 333 332 332 331 332 330 330 330 334 337 330 333 333 337 337 340 348 351 349 351
302 309 311 311 311 311 308 308 313 312 309 309 308 308 307 309 311 312 313 320 325 324 326 329 331 332 333 330 330 331 330 327 332 333 333 328 331 332 331 333 337 345 349 351 350
303 310 312 313 313 310 309 311 312 309 309 308 307 306 306 307 310 311 313 317 324 327 325 325 327 334 334 329 326 327 326 323 323 326 326 327 327 327 329 330 331 335 348 349 349
306 311 314 312 311 310 310 312 311 309 308 307 306 307 307 308 311 311 313 316 318 323 318 323 322 331 333 333 327 324 323 323 322 324 326 326 328 329 327 328 330 331 340 346 349
308 313 311 311 311 311 311 312 311 309 309 309 307 306 306 308 311 312 314 315 319 319 318 321 322 322 327 332 332 324 324 323 321 322 325 329 329 327 328 329 329 331 332 340 347
308 312 313 310 312 311 311 310 308 308 308 309 309 308 308 308 308 309 311 313 316 316 317 319 323 323 323 326 330 327 324 323 324 324 323 323 326 330 331 330 330 331 332 337 344
309 312 311 309 311 312 311 311 309 308 307 309 309 309 308 309 312 314 315 314 315 315 316 319 322 328 325 324 325 328 325 324 323 324 325 325 325 331 330 331 330 333 332 335 342
310 311 310 309 308 309 310 311 311 310 310 309 308 308 309 309 310 313 311 314 313 313 317 321 322 323 329 326 327 329 328 325 324 326 325 328 327 331 332 332 333 334 336 335 342
309 310 308 309 308 308 309 309 312 312 310 309 309 308 310 309 310 311 311 311 310 313 315 315 319 324 329 329 330 331 328 327 325 325 329 327 330 331 337 336 337 336 337 340 340
309 310 307 307 307 308 309 310 310 309 310 310 308 308 307 310 310 309 308 309 311 312 313 312 319 324 333 332 331 333 332 328 327 326 326 328 326 332 333 336 336 336 336 338 340
308 307 306 307 307 309 310 310 311 310 310 310 310 307 308 307 307 307 307 307 308 313 312 311 316 322 331 332 334 336 334 329 328 328 327 327 328 333 335 336 333 333 333 332 331
Wind_Speed
26 27 27 27 27 26 26 25 27 26 23 22 22 22 19 19 20 14 11 19 22 15 9 11 16 17 21 8 19 17 7 7 7 0 6 17 20 17 15 24 9 9 22 24 38
29 30 31 31 31 30 29 28 29 26 22 22 22 17 17 17 19 22 31 26 24 15 17 15 13 15 13 17 8 8 3 8 5 6 6 4 7 20 22 21 21 25 23 34 36
32 33 34 34 33 33 33 34 30 24 23 24 21 16 15 12 7 10 7 32 30 28 23 22 19 16 16 15 16 11 8 8 4 7 8 9 9 4 23 18 29 29 27 26 29
34 36 36 37 36 37 36 34 26 25 27 23 18 14 9 1 4 4 7 5 34 28 18 22 16 16 14 18 20 16 19 9 8 5 5 11 2 8 22 15 25 27 28 25 22
36 38 39 38 38 38 36 30 26 28 25 17 13 7 1 5 12 11 16 7 27 33 25 17 17 15 18 16 18 17 15 16 9 6 19 14 7 3 25 27 26 26 25 22 20
37 39 41 40 39 39 34 30 30 29 23 14 10 4 4 9 15 17 9 13 25 32 24 19 10 13 11 19 17 15 16 15 11 11 16 14 6 7 22 27 27 27 26 21 21
41 42 43 44 42 38 34 34 36 34 19 13 8 9 9 19 10 7 26 21 26 34 17 27 27 15 16 12 20 18 16 17 15 18 8 11 5 13 21 31 29 26 25 24 25
41 42 44 44 41 35 35 37 41 24 11 11 8 11 9 20 18 28 17 21 25 29 28 24 28 15 17 10 17 17 17 14 14 15 14 20 14 8 24 27 28 27 25 25 26
39 41 43 43 38 34 35 37 33 20 3 1 8 8 11 16 10 28 23 23 28 25 29 25 21 15 15 14 13 11 13 12 9 24 8 28 12 22 18 24 27 26 24 24 25
41 43 45 46 39 31 34 36 21 3 2 4 7 4 9 5 9 19 24 19 14 13 15 16 9 15 15 12 16 12 7 10 15 17 16 9 8 23 21 23 26 23 20 19 26
44 46 46 46 42 29 38 16 9 2 6 11 19 21 40 19 30 20 27 19 12 15 17 18 11 21 23 18 12 13 17 15 13 15 10 14 11 29 28 19 22 15 19 20 19
45 47 45 45 40 25 23 10 13 17 20 20 27 27 37 29 14 18 26 17 17 21 16 12 24 19 15 15 19 19 21 19 14 16 11 10 12 14 33 30 29 20 12 20 20
46 47 46 43 31 18 29 23 29 29 9 20 13 13 17 13 17 29 10 21 16 22 24 24 12 20 20 21 23 22 22 18 15 15 17 16 16 10 22 25 24 33 33 25 26
46 47 47 42 11 29 15 30 31 28 5 9 2 6 5 10 9 25 26 18 19 23 23 25 20 25 25 25 22 21 19 21 21 13 6 2 3 7 14 23 26 27 23 26 24
44 45 45 26 18 8 23 33 32 20 5 10 15 12 28 3 14 13 32 20 25 22 20 24 23 28 26 26 23 16 14 22 23 15 7 18 11 13 10 16 29 28 31 25 23
50 47 40 14 13 20 26 33 23 2 5 9 18 22 25 23 20 18 14 17 15 24 22 25 14 19 27 23 19 15 17 15 17 13 14 11 17 17 13 12 26 30 29 28 24
53 47 21 11 6 19 26 13 4 4 9 11 21 22 21 20 26 25 22 18 18 20 25 19 30 24 18 21 21 19 11 9 12 13 13 10 7 10 11 13 18 29 30 29 28
55 34 13 17 21 21 19 8 5 9 12 17 18 18 16 22 19 27 29 18 22 23 5 20 20 31 22 22 16 22 20 10 15 9 10 8 10 9 12 7 15 23 31 31 27
54 24 15 16 18 16 4 4 6 10 14 16 19 16 18 22 17 22 21 15 11 19 23 14 28 16 28 20 20 19 20 12 3 6 3 3 7 13 17 15 9 10 24 32 28
37 13 11 4 12 13 4 11 16 13 14 12 14 9 18 15 15 15 12 19 27 26 32 26 17 20 21 26 21 18 12 13 9 9 10 10 12 15 15 20 13 11 19 25 28
17 7 26 28 18 6 7 7 14 16 15 12 17 13 12 12 11 14 8 25 16 29 30 20 13 30 16 25 28 12 12 15 6 6 6 6 10 11 22 22 21 12 12 20 24
10 5 21 35 5 6 9 17 15 15 11 10 12 15 12 18 12 12 21 14 25 25 28 18 8 17 27 15 24 16 15 15 10 11 5 4 11 6 6 26 22 18 12 16 23
6 5 18 26 5 7 14 17 18 16 9 6 5 6 12 15 6 7 13 12 13 18 12 15 6 5 18 16 20 28 22 18 8 6 9 10 10 4 11 15 22 15 15 10 20
4 4 4 6 10 14 13 13 17 21 18 3 5 9 10 8 5 9 10 10 19 21 31 23 13 17 11 15 7 12 24 21 16 10 10 16 4 10 11 10 9 9 10 9 15
2 4 6 5 9 15 14 13 14 10 12 13 5 7 7 7 8 7 15 16 17 19 17 10 10 16 14 12 9 15 25 23 20 16 15 12 8 8 1 7 7 7 8 10 9
4 3 2 7 10 15 11 10 12 17 15 14 15 9 7 7 9 14 6 9 7 13 14 16 8 15 5 9 11 17 18 26 20 19 16 10 9 8 7 8 14 11 14 11 9
4 2 1 3 6 9 7 10 13 19 10 19 21 9 9 11 10 12 15 10 14 6 13 14 9 9 4 4 5 5 17 17 20 18 19 17 8 7 6 10 13 11 10 10 10
Wind_Direction
359 356 352 350 348 345 341 338 335 327 319 318 315 311 310 309 299 288 235 228 236 217 196 183 204 216 191 224 231 205 169 254 235 166 334 18 97 121 111 132 145 179 140 137 142
357 356 353 350 346 343 338 335 330 325 321 316 313 307 311 317 303 257 248 247 218 200 204 197 200 205 221 209 232 181 142 225 238 354 328 300 275 131 113 108 102 113 128 140 150
358 355 353 350 346 343 339 337 329 325 325 319 309 298 305 330 279 248 277 231 216 210 226 219 225 206 215 227 232 199 186 236 260 247 301 257 340 297 119 125 140 143 147 154 151
356 354 352 349 345 342 339 337 334 331 329 321 307 293 302 348 240 132 44 210 208 202 200 214 234 214 219 223 230 225 216 193 212 21 358 250 180 306 140 151 147 145 154 158 153
355 353 351 347 344 341 338 336 330 329 327 321 318 281 172 218 245 220 290 291 196 194 202 207 224 220 219 224 234 239 177 210 223 155 199 237 180 314 130 139 144 145 154 159 158
354 352 350 347 343 341 338 334 329 326 325 314 301 200 219 246 249 248 247 162 177 187 203 209 225 224 229 235 236 246 189 191 147 318 188 217 143 140 138 137 145 154 158 166 164
355 352 349 346 344 341 335 330 328 321 310 304 267 204 246 236 244 210 202 184 180 188 203 215 227 242 226 252 243 256 259 188 183 176 189 231 164 160 155 150 152 160 164 170 174
353 350 348 345 343 338 331 331 333 315 289 292 231 195 252 254 267 277 220 182 187 197 211 218 232 248 259 257 261 255 256 237 192 226 197 192 201 189 163 152 155 166 174 177 179
353 350 348 344 341 335 328 330 329 328 295 182 146 214 261 306 222 241 221 191 187 203 205 223 230 236 251 240 255 255 245 230 198 211 189 190 149 183 174 156 164 171 182 183 182
354 352 349 345 341 330 323 329 334 32 117 178 261 284 261 257 221 215 229 229 186 198 189 209 222 229 236 221 222 232 232 235 219 236 214 221 178 170 182 179 167 169 184 192 178
353 352 349 345 340 329 330 340 358 286 328 274 269 269 294 280 320 196 204 218 217 189 209 202 212 222 218 224 235 235 243 230 243 227 215 211 215 171 187 155 142 173 194 193 195
352 350 349 342 338 332 347 348 353 304 301 256 254 254 258 266 279 288 202 193 218 204 206 198 225 222 216 218 233 235 244 251 231 239 224 240 229 166 180 164 160 168 234 198 195
351 348 347 339 337 346 337 346 333 327 296 302 246 243 244 222 233 256 249 203 212 210 205 209 219 218 214 219 221 231 234 245 244 243 243 187 221 214 165 162 160 168 197 202 188
346 346 344 340 342 332 319 328 330 323 308 286 6 12 11 227 264 232 247 220 224 222 211 227 228 200 223 220 219 223 233 245 253 260 187 234 251 237 176 174 167 171 163 204 194
344 339 338 339 296 301 305 322 322 310 303 16 6 359 349 116 309 198 224 244 213 219 208 217 197 226 212 221 217 227 227 238 250 258 256 203 211 231 202 192 175 172 180 192 189
342 336 336 335 309 288 312 320 309 232 246 325 15 355 349 339 328 311 255 235 227 231 234 230 209 220 226 218 224 221 222 247 246 248 253 238 206 235 204 186 169 179 180 191 171
340 339 327 288 253 307 319 318 302 237 318 360 4 348 331 329 341 353 339 240 215 217 234 237 226 221 227 220 203 218 205 229 236 229 233 230 230 226 210 209 185 185 178 179 181
338 338 317 284 280 292 319 308 253 304 349 355 351 327 354 354 344 343 339 326 225 228 206 229 234 216 215 226 195 207 216 209 216 210 232 235 241 250 261 236 224 185 170 179 182
338 335 303 300 257 296 315 287 307 7 4 347 339 339 343 342 343 347 335 291 322 234 232 219 241 204 227 212 218 204 217 216 260 211 248 206 252 261 259 269 210 209 177 177 187
333 301 279 303 308 290 277 264 314 4 348 330 324 343 334 355 351 337 328 292 340 349 350 246 269 224 220 229 230 214 175 215 213 201 221 234 218 231 234 246 241 212 196 185 177
328 316 30 358 339 290 253 293 309 337 349 346 329 317 318 342 345 325 276 308 346 338 331 313 243 250 240 209 219 200 195 202 186 193 183 208 238 226 223 222 231 218 184 192 174
308 307 336 356 329 337 355 340 344 333 342 9 348 341 346 333 297 302 287 278 323 328 317 290 293 236 240 253 211 225 212 197 206 228 223 200 258 317 265 209 209 216 207 181 177
302 282 355 345 27 347 338 335 324 349 355 29 317 310 323 315 337 334 328 312 321 313 323 327 321 270 248 253 265 214 202 213 182 149 218 227 259 265 313 199 193 194 199 163 167
290 309 359 329 357 353 334 322 337 338 338 44 296 294 323 327 360 287 285 294 314 296 302 307 255 243 256 231 224 220 204 200 204 202 213 240 234 300 330 156 143 154 146 173 145
319 349 22 318 332 317 308 322 344 326 315 310 272 319 337 300 292 297 324 330 316 304 309 298 265 256 265 270 278 269 201 195 206 210 198 233 184 216 333 48 133 144 131 144 148
329 2 12 296 305 309 314 322 321 320 344 312 318 324 308 267 284 310 294 336 306 316 321 306 283 324 276 288 277 285 244 194 200 212 224 246 224 208 170 91 74 76 82 75 68
29 326 90 271 302 309 308 327 310 306 306 317 302 295 261 282 291 269 286 238 245 235 304 287 320 330 308 316 292 301 251 197 203 197 211 223 211 151 137 130 129 114 97 93 87